星链-36595(STARLINK-36595)

导读 | 豆包AI

STARLINK-36595是美国发射的Starlink系列卫星之一,于2026年1月30日发射升空,属于SpaceX公司星链星座组网卫星,主要用于为全球提供高速低延迟互联网卫星服务,尤其服务偏远地区及网络基础设施薄弱区域,进一步扩充星链星座在轨规模,增强全球覆盖能力与网络服务稳定性。

基本信息
目录编号:
67639
目录名称:
STARLINK-36595
国际标识:
2026-020Y
轨道中心:
EARTH
卫星名称:
星链-36595
卫星全名:
星链-36595(STARLINK-36595)
卫星状态:
在轨 (已飞行115 天)
发射日期:
2026-01-30 UTC
国别 :
美国 (US)
星等 :
--
轨道信息
数据来源 国际轨道数据
星历时间: 2026-05-25T09:31:29+0800
7小时前
查看轨道信息
半长轴: 6861.143km
偏心率: 0.0002889
轨道倾角: 43.006°
近地点辐角 275.892°
升交点赤经 68.480°
平近点角 84.160°
近地点: 481.023km
远地点: 484.989km
周期: 94.266分钟
每日圈数: 15.275945
详细信息
固有亮度:
5
最大亮度:
2.5
卫星平台:
Starlink V1.0
覆盖范围:
全球
运营商:
太空探索技术公司
运营商所在国:
美国
制造商(研发单位):
太空探索技术公司
制造商所在国:
美国
使用方式:
暂无
卫星简介
Starlink 计划是 SpaceX 推出的全球卫星互联网项目,通过发射低轨道卫星,为全球尤其是偏远地区提供高速、低延迟的互联网服务。自 2019 年起,Starlink 已部署数千颗卫星,旨在缩小全球数字鸿沟,推动互联网普及。该项目还为军事、航空等行业提供通信支持,带来广泛经济效益。
2D轨道图
3D轨道图
轨道高度分析图
轨道倾角分析图
轨道综合分析图
查看轨道综合分析图